Vertical_Velocity
-1 -1 0 0 -1 -0 1 0 -1 -2 -1 1 -0 -1 -0 1 -1 -1 -1 -0 -0 -1 -1 -1 -0 -2 -2 -0 -1 -2 -4 -0 1 -0 -1 -0 -1 0 1 -0 -0 -1 0 1 0
-1 -1 -0 1 0 0 0 1 0 -1 -1 -1 1 0 -1 -0 0 -0 -0 -1 -1 -0 -1 -1 -0 -1 1 -1 -1 -2 -2 0 1 1 -1 -1 -1 -0 -0 -0 -0 -0 -1 -1 0
-1 -1 -1 -0 1 1 1 0 -0 -0 -1 -2 -1 -1 -0 0 -2 1 -2 -1 0 0 0 -0 -1 -2 2 0 1 1 0 -0 0 0 -1 -1 -1 0 -0 -1 -2 -1 1 -1 -1
-0 -1 -1 -1 -0 -0 1 0 0 0 -0 -0 -1 -1 0 -1 -3 1 -0 -1 -1 1 0 -1 1 -1 1 -0 -1 -2 1 -0 -1 -2 -1 -1 1 -2 -1 -0 -1 -2 -0 -0 -1
-0 -1 -1 -1 -1 -1 0 1 -0 0 0 -2 -0 -1 -2 -0 -2 -1 1 1 -1 -1 -0 0 0 2 -1 -0 1 -2 1 3 -1 -1 -2 -1 -2 -2 -1 2 -1 -1 -2 -1 0
-0 -1 -1 -1 -2 0 1 -0 0 0 0 -0 -1 -0 -1 -1 -2 -3 0 -1 1 -1 0 -1 -0 0 -0 1 -1 0 1 -0 -1 0 0 -1 -1 -1 -2 -1 -1 -1 0 -2 1
-1 -1 -1 -1 -1 -0 0 -0 1 0 1 1 -1 -1 -2 1 -1 -1 -0 0 -1 1 -1 0 -1 0 0 1 1 -2 2 4 2 2 -0 -0 -0 -3 -2 -0 -1 -2 -1 1 -2
-0 -1 -1 -1 -0 1 -0 1 2 0 1 -0 -1 -1 -1 -3 -0 -1 -1 -0 -0 -0 1 1 -0 0 1 -1 -3 -4 1 3 -0 -0 -0 -1 5 -1 -4 -3 -1 -1 -0 -3 -0
-0 -0 -1 -1 1 1 -2 1 -0 1 0 -0 -1 -1 -1 -2 0 -0 -2 -1 -0 -1 1 2 1 2 1 2 -1 -1 7 2 -2 -1 -2 1 1 1 -2 -2 -3 -1 1 0 1
-1 -1 -1 0 0 -0 -0 -0 -1 0 -1 -0 -0 1 -0 1 0 2 1 -2 -1 1 -1 1 1 2 0 1 4 -1 -0 -0 3 2 1 1 1 -2 2 -2 -3 -3 -4 -0 -0
-1 -1 -2 0 -0 -1 0 -1 -1 -2 1 -1 3 2 -4 -2 -2 2 0 0 -0 -0 -1 -0 -1 1 4 1 -3 -1 4 -4 1 1 1 1 2 1 1 2 3 1 -4 -3 -2
-0 -1 -1 -0 -2 -1 -1 -0 -1 1 0 -1 -1 2 -1 1 -1 1 1 -0 1 1 0 -0 -0 2 1 -1 -1 -1 -0 -1 -2 -1 2 -1 3 2 1 2 3 2 0 -2 -0
-0 -1 -1 0 -1 -1 -1 -0 1 1 -0 -0 -1 3 0 -1 -1 -0 0 -1 1 -1 2 0 1 -2 1 1 -1 0 -1 9 1 -3 3 -0 4 3 0 2 1 1 -1 -3 -0
-1 -1 -1 -0 -0 -1 0 1 1 1 1 1 -2 2 -2 -1 -4 1 1 1 0 2 2 -1 -3 -1 -2 -1 1 0 -1 -3 -1 2 6 -2 0 1 -3 -1 6 3 -1 -3 -4
-0 -1 -1 -0 -0 -0 -0 0 1 2 5 -0 -0 3 -0 -2 6 -1 0 2 0 1 1 2 1 1 -2 5 -1 2 -4 -3 -2 3 1 -3 -1 4 -1 2 11 1 -2 -3 4
-0 -1 -1 -0 -0 -0 1 1 1 2 -7 -3 -1 -2 -1 2 1 4 1 0 2 3 1 -8 0 -3 3 -1 0 -4 -0 0 -0 2 1 5 -3 -2 14 3 5 4 3 -1 1
0 -1 -0 -1 -1 0 1 1 1 1 2 -0 -1 1 2 2 2 0 1 1 1 1 1 0 1 2 0 1 1 0 2 1 0 -0 -6 2 -2 7 2 -0 4 2 1 -1 -1
0 -1 0 -1 1 -0 0 1 2 1 1 1 1 2 3 2 1 0 -0 0 3 2 2 1 -2 4 4 4 5 3 2 2 -5 2 18 -2 -2 6 -1 1 -2 -3 -2 1 1
-0 -1 -0 -1 1 0 0 1 0 -1 2 2 2 2 2 2 1 1 1 -0 1 -0 5 1 2 3 2 -1 2 0 -2 5 1 -5 -2 6 -5 -1 3 -3 -6 -3 -2 -2 -2
-0 -0 -0 -0 0 0 -1 1 1 0 1 1 1 2 2 2 1 0 1 -2 -2 -1 1 -0 2 -1 -1 -1 1 -2 -0 -0 -5 -1 -5 12 -2 25 -3 -3 -4 -1 -2 2 1
-1 -0 -1 -1 0 -0 -1 -0 1 -0 -0 1 1 2 3 3 2 1 0 -1 -2 -2 -1 2 3 1 1 -0 5 0 -3 -3 -2 -4 5 4 16 -6 -6 1 -1 -1 1 -1 3
1 -1 -1 0 0 1 -1 -1 1 0 -0 -1 2 2 4 1 1 0 -0 -1 -2 -0 0 1 -0 4 4 -1 0 1 6 4 -1 -1 -2 -7 18 -5 -1 -2 3 2 -0 6 2
2 0 -1 -0 0 1 1 1 0 -0 0 0 1 1 2 1 -0 -0 -0 -1 -0 -1 -1 -2 1 -3 -1 -1 -2 0 -1 2 6 -3 -2 -1 15 -1 -1 -2 3 1 0 -2 1
2 -0 -1 1 1 1 2 1 -0 1 3 1 2 2 2 1 0 -0 0 -0 -0 -1 -0 -2 0 14 31 16 12 -0 1 -1 -2 16 12 -3 11 -1 1 -0 4 -1 1 -0 -1
1 1 0 -1 -1 -0 0 4 0 -0 1 2 3 1 1 2 2 -1 1 2 1 1 0 1 2 1 -5 -4 -1 -2 1 -1 -5 -2 6 10 -0 -1 0 0 3 2 0 1 -1
0 2 0 1 1 -0 2 -0 0 1 1 2 3 3 3 1 -1 2 1 1 -0 2 0 1 -6 1 1 0 -3 -3 -2 3 1 -2 -6 -5 -7 -1 -1 -0 1 0 -5 -2 -2
5 2 1 2 1 2 -2 1 -0 3 1 2 3 3 -1 0 -1 -1 1 2 1 0 1 1 -4 -2 21 -1 -2 -2 -2 -0 -0 -1 -0 9 -6 2 1 -2 -3 -1 1 -3 0
Height
5911 5913 5915 5917 5919 5920 5921 5922 5923 5923 5924 5926 5926 5926 5926 5926 5928 5929 5928 5929 5929 5931 5932 5933 5933 5933 5933 5933 5932 5932 5934 5932 5928 5925 5923 5922 5921 5920 5919 5917 5915 5913 5913 5913 5913
5907 5909 5911 5913 5916 5917 5919 5920 5921 5922 5923 5924 5925 5926 5926 5927 5928 5928 5929 5928 5929 5930 5932 5934 5934 5935 5935 5935 5935 5934 5935 5933 5931 5929 5927 5925 5923 5923 5922 5919 5918 5916 5915 5913 5914
5903 5905 5907 5909 5912 5914 5916 5917 5919 5920 5922 5923 5924 5925 5926 5926 5928 5928 5929 5929 5929 5930 5930 5934 5934 5936 5937 5938 5938 5937 5936 5935 5933 5931 5930 5928 5927 5925 5923 5922 5920 5919 5917 5915 5914
5898 5901 5903 5905 5907 5910 5912 5914 5916 5917 5919 5921 5923 5924 5925 5926 5929 5928 5928 5929 5929 5930 5930 5933 5935 5937 5939 5939 5939 5939 5939 5937 5936 5934 5933 5931 5930 5928 5926 5926 5923 5922 5920 5917 5915
5893 5895 5898 5901 5903 5905 5908 5910 5912 5914 5916 5918 5920 5922 5923 5925 5926 5927 5928 5928 5929 5930 5931 5931 5935 5937 5939 5940 5940 5940 5940 5940 5939 5936 5935 5934 5931 5930 5928 5927 5926 5925 5923 5921 5918
5888 5890 5893 5895 5898 5901 5903 5906 5908 5910 5913 5915 5917 5919 5921 5923 5924 5925 5927 5928 5929 5929 5930 5931 5934 5936 5939 5940 5941 5941 5941 5941 5941 5940 5938 5936 5934 5932 5930 5929 5929 5928 5926 5923 5921
5883 5885 5887 5890 5893 5896 5899 5901 5903 5906 5908 5911 5913 5915 5918 5921 5921 5923 5925 5927 5928 5928 5929 5930 5932 5934 5937 5939 5940 5941 5942 5942 5942 5941 5939 5937 5936 5934 5932 5930 5929 5929 5928 5926 5924
5877 5880 5882 5884 5887 5890 5893 5896 5898 5901 5904 5907 5909 5912 5914 5917 5918 5920 5923 5925 5925 5926 5927 5929 5930 5932 5933 5936 5939 5940 5941 5942 5940 5940 5939 5939 5938 5936 5934 5932 5930 5930 5929 5928 5926
5871 5874 5876 5879 5881 5884 5886 5890 5893 5895 5898 5901 5905 5907 5910 5913 5915 5917 5919 5921 5923 5923 5925 5927 5929 5931 5932 5933 5938 5939 5945 5941 5939 5939 5939 5938 5938 5936 5934 5932 5931 5930 5930 5929 5927
5867 5868 5870 5873 5875 5877 5880 5883 5886 5890 5893 5896 5899 5903 5906 5909 5911 5913 5915 5918 5919 5920 5922 5925 5926 5928 5929 5932 5940 5941 5942 5939 5939 5939 5938 5938 5938 5936 5934 5933 5932 5931 5929 5928 5928
5863 5864 5866 5868 5870 5871 5874 5877 5882 5885 5887 5890 5894 5897 5899 5903 5905 5908 5910 5914 5916 5917 5918 5921 5923 5925 5927 5929 5933 5936 5940 5939 5938 5938 5937 5938 5937 5937 5935 5934 5934 5932 5931 5929 5928
5860 5861 5861 5863 5864 5866 5868 5871 5874 5879 5881 5884 5888 5891 5894 5897 5900 5902 5905 5909 5911 5913 5914 5918 5921 5922 5923 5924 5927 5931 5935 5938 5936 5936 5936 5937 5938 5938 5937 5936 5935 5933 5932 5930 5929
5856 5857 5857 5858 5859 5860 5862 5865 5868 5872 5876 5879 5882 5885 5889 5892 5894 5897 5900 5903 5905 5908 5911 5913 5917 5917 5919 5921 5924 5927 5932 5937 5934 5933 5935 5936 5939 5938 5938 5936 5934 5933 5932 5930 5928
5852 5853 5853 5854 5856 5856 5858 5860 5864 5867 5870 5874 5876 5879 5883 5886 5889 5892 5895 5899 5901 5904 5906 5908 5910 5913 5915 5917 5921 5926 5928 5928 5930 5931 5936 5933 5937 5937 5934 5935 5935 5933 5931 5930 5927
5848 5849 5850 5850 5851 5853 5855 5856 5860 5863 5866 5869 5871 5874 5877 5881 5885 5888 5890 5893 5896 5898 5902 5905 5906 5909 5911 5915 5918 5922 5922 5925 5927 5929 5930 5932 5933 5936 5934 5933 5933 5931 5930 5928 5926
5844 5845 5846 5848 5848 5849 5851 5853 5856 5860 5860 5864 5867 5870 5873 5877 5880 5883 5886 5889 5892 5894 5896 5898 5902 5905 5909 5911 5914 5917 5919 5922 5925 5927 5929 5932 5930 5933 5934 5931 5930 5928 5928 5927 5926
5840 5841 5843 5844 5846 5846 5848 5851 5854 5855 5859 5861 5863 5866 5870 5873 5877 5880 5883 5886 5888 5891 5892 5894 5898 5901 5904 5907 5911 5914 5918 5922 5926 5926 5927 5927 5926 5928 5927 5927 5928 5927 5925 5925 5925
5836 5837 5839 5841 5842 5844 5846 5849 5851 5853 5856 5858 5860 5863 5867 5870 5873 5877 5880 5882 5884 5886 5887 5891 5894 5898 5902 5905 5909 5912 5916 5922 5924 5927 5929 5923 5923 5925 5923 5924 5924 5923 5923 5923 5924
5831 5833 5836 5837 5839 5841 5844 5847 5849 5851 5854 5857 5858 5862 5865 5868 5872 5874 5877 5878 5880 5881 5885 5887 5891 5893 5898 5901 5906 5909 5912 5919 5921 5921 5921 5923 5920 5921 5920 5920 5922 5921 5922 5921 5921
5827 5829 5832 5834 5837 5839 5842 5844 5847 5850 5852 5855 5858 5861 5864 5867 5870 5872 5874 5876 5877 5878 5879 5883 5888 5890 5894 5898 5902 5905 5910 5914 5916 5919 5919 5920 5918 5923 5918 5919 5919 5920 5920 5920 5919
5822 5825 5828 5831 5834 5837 5839 5842 5845 5848 5851 5854 5857 5860 5863 5866 5869 5871 5874 5875 5875 5876 5878 5881 5887 5890 5892 5896 5900 5903 5905 5909 5914 5915 5917 5919 5920 5916 5915 5916 5917 5918 5919 5918 5917
5816 5820 5823 5826 5831 5834 5837 5840 5843 5846 5849 5852 5856 5859 5863 5865 5868 5870 5872 5873 5874 5876 5879 5882 5887 5891 5894 5896 5899 5901 5907 5910 5912 5913 5912 5912 5918 5914 5913 5914 5916 5917 5916 5916 5914
5810 5815 5818 5822 5826 5831 5835 5838 5841 5844 5848 5851 5855 5858 5861 5863 5866 5868 5870 5872 5874 5876 5879 5884 5888 5893 5894 5897 5898 5900 5903 5908 5911 5911 5910 5913 5914 5910 5911 5912 5913 5914 5913 5912 5911
5803 5809 5813 5817 5822 5827 5831 5835 5839 5842 5847 5850 5854 5857 5860 5863 5865 5867 5869 5871 5874 5876 5880 5884 5889 5894 5898 5897 5899 5899 5901 5903 5907 5912 5911 5911 5910 5908 5908 5909 5910 5910 5909 5908 5907
5795 5802 5807 5812 5816 5822 5827 5832 5836 5840 5844 5849 5852 5856 5859 5862 5865 5866 5869 5872 5874 5877 5881 5885 5888 5890 5891 5893 5894 5896 5899 5900 5902 5906 5909 5908 5907 5905 5905 5906 5906 5906 5905 5905 5904
5787 5794 5801 5806 5811 5817 5822 5827 5832 5837 5842 5846 5850 5854 5857 5860 5863 5865 5868 5871 5874 5877 5880 5884 5885 5888 5889 5890 5890 5892 5895 5897 5899 5900 5901 5903 5903 5903 5903 5902 5901 5901 5900 5900 5899
5777 5786 5793 5800 5806 5811 5816 5822 5828 5833 5838 5843 5847 5851 5853 5856 5859 5862 5866 5869 5872 5875 5878 5882 5884 5886 5890 5887 5887 5890 5890 5892 5894 5896 5899 5902 5899 5899 5899 5897 5896 5896 5895 5894 5893